Voltar ao catálogo

STARLINK-35926

AtivoComunicaçõesVLEO
NORAD 66642·PAYLOAD·🇺🇸 United States

Lançado Nov 23, 2025 de Vandenberg Space Force Base

Loading…

Próximas Passagens (próximas 24 horas)

TLE

AtualizadoSource: CelesTrak SupGP

Época: Sep 14, 2026, 23:08 UTC

1 66642C 25271AB  26257.96437500  .00008211  00000+0  24269-3 0  2571
2 66642  53.1593 339.5486 0001212  79.3648 248.1177 15.34374536    15

Acompanhe STARLINK-35926 em tempo real com AllMySat

Download on the App Store